FW6569 Weather Reports


time (UTC)temp
C
wind
direction
speed
KPH
gust
KPH
rain 1hr
cm
rain 24hr
cm
rain mn
cm
humidity
%
barometer
mb
20260506203526 15 11 4.8 11.3 0.00 3.94 0.91 54 1014.4
20260506202526 15 348 4.8 9.7 0.00 3.94 0.91 55 1014.4
20260506201547 15 296 3.2 8.0 0.00 3.94 0.91 52 1014.4
20260506200547 15 8 3.2 8.0 0.00 3.94 0.91 52 1014.5
20260506195526 15 4 4.8 9.7 0.00 3.94 0.91 52 1014.6
20260506194527 15 246 6.4 9.7 0.00 3.94 0.91 53 1014.6
20260506193526 15 34 3.2 6.4 0.00 3.94 0.91 55 1014.5
20260506192527 15 347 4.8 9.7 0.00 3.96 0.91 55 1014.6
20260506191527 15 277 6.4 12.9 0.00 3.99 0.91 54 1014.5
20260506190547 16 351 4.8 6.4 0.00 4.01 0.91 54 1014.4
20260506185547 15 317 3.2 9.7 0.00 4.09 0.91 57 1014.3
20260506184527 15 7 6.4 9.7 0.00 4.11 0.91 55 1014.3
20260506183527 15 255 6.4 14.5 0.00 4.14 0.91 55 1014.3
20260506182527 14 15 8.0 11.3 0.00 4.19 0.91 56 1014.3
20260506181527 14 290 3.2 6.4 0.00 4.24 0.91 57 1014.5
20260506180527 14 25 3.2 6.4 0.00 4.24 0.91 56 1014.4
20260506175527 14 7 3.2 6.4 0.00 4.24 0.91 53 1014.5
20260506174527 14 351 4.8 9.7 0.00 4.39 0.91 54 1014.6
20260506173608 13 15 8.0 14.5 0.00 4.42 0.91 56 1014.6
20260506172547 14 360 4.8 11.3 0.00 4.42 0.91 53 1014.8
20260506171547 15 357 4.8 9.7 0.00 4.42 0.91 52 1014.8
20260506170547 15 239 4.8 8.0 0.00 4.42 0.91 51 1014.9
20260506165547 15 355 6.4 12.9 0.00 4.42 0.91 54 1014.8
20260506164527 14 350 4.8 9.7 0.00 4.42 0.91 58 1014.7
20260506163527 13 6 11.3 14.5 0.00 4.42 0.91 55 1014.6
20260506162527 13 1 6.4 14.5 0.00 4.42 0.91 55 1014.8
20260506161527 14 356 8.0 19.3 0.00 4.42 0.91 57 1014.8
20260506160528 13 354 4.8 9.7 0.00 4.42 0.91 60 1014.8
20260506155527 13 14 11.3 17.7 0.00 4.42 0.91 59 1014.6
20260506154527 13 20 4.8 9.7 0.00 4.42 0.91 63 1014.5
20260506153527 13 11 9.7 16.1 0.00 4.42 0.91 61 1014.4
20260506152607 12 9 9.7 16.1 0.00 4.42 0.91 63 1014.7
20260506151527 12 10 6.4 11.3 0.00 4.42 0.91 64 1014.9
20260506150548 12 2 4.8 9.7 0.00 4.42 0.91 65 1014.6
20260506145527 11 15 4.8 9.7 0.00 4.42 0.91 66 1014.4
20260506144527 11 4 6.4 12.9 0.00 4.42 0.91 69 1014.5
20260506143527 11 7 6.4 11.3 0.00 4.42 0.91 72 1014.3
20260506142527 10 7 8.0 12.9 0.00 4.42 0.91 74 1013.8
20260506141527 10 17 9.7 12.9 0.00 4.42 0.91 75 1013.5
20260506140527 9 353 6.4 11.3 0.00 4.42 0.91 77 1013.3
20260506135527 9 18 9.7 14.5 0.00 4.42 0.91 77 1013.2
20260506134528 9 8 6.4 9.7 0.00 4.42 0.91 80 1013.3
20260506133527 9 11 6.4 11.3 0.00 4.42 0.91 81 1013.5
20260506132527 8 2 3.2 6.4 0.00 4.42 0.91 84 1013.6
20260506131528 8 22 1.6 4.8 0.00 4.42 0.91 86 1013.5
20260506130527 8 355 1.6 4.8 0.00 4.42 0.91 88 1013.5
20260506125528 8 349 3.2 6.4 0.00 4.45 0.91 88 1013.2
20260506124547 8 341 0.0 3.2 0.00 4.45 0.91 91 1013.5
20260506123528 7 285 0.0 3.2 0.00 4.45 0.91 91 1013.3
20260506122528 7 319 3.2 4.8 0.00 4.45 0.91 92 1013.2
20260506121527 7 248 1.6 6.4 0.00 4.45 0.91 93 1013.3
20260506120527 7 0.0 0.0 0.00 4.45 0.91 94 1013.0
20260506115528 7 314 1.6 6.4 0.00 4.45 0.91 95 1012.7
20260506114527 7 0.0 0.0 0.00 4.45 0.91 95 1012.4
20260506113528 6 0.0 0.0 0.00 4.45 0.91 95 1012.1
20260506112527 6 0.0 0.0 0.00 4.45 0.91 96 1011.8
20260506111548 6 0.0 0.0 0.00 4.45 0.91 95 1011.4
20260506110528 6 0.0 0.0 0.00 4.45 0.91 95 1011.3
20260506105527 6 0.0 0.0 0.00 4.45 0.91 95 1011.3
20260506104528 6 289 1.6 3.2 0.00 4.45 0.91 95 1010.7
20260506103528 6 8 3.2 6.4 0.00 4.45 0.91 95 1010.7
20260506102528 6 356 1.6 6.4 0.00 4.47 0.91 95 1011.0
20260506101528 6 14 1.6 4.8 0.00 4.50 0.91 94 1011.3
20260506100608 6 329 1.6 6.4 0.00 4.50 0.91 94 1011.1
20260506095528 6 270 1.6 4.8 0.00 4.52 0.91 94 1010.8
20260506094528 6 5 1.6 4.8 0.00 4.55 0.91 94 1010.3
20260506093608 6 12 4.8 11.3 0.00 4.60 0.91 94 1010.1
20260506092528 6 2 6.4 9.7 0.00 4.67 0.91 94 1010.1
20260506091528 6 356 6.4 9.7 0.03 4.78 0.91 94 1010.6
20260506090528 6 322 1.6 9.7 0.03 4.85 0.91 93 1010.8
20260506085528 6 349 4.8 9.7 0.03 4.95 0.91 92 1010.3
20260506084528 6 350 6.4 12.9 0.03 4.98 0.91 92 1009.7
20260506083528 6 346 6.4 11.3 0.03 5.03 0.91 91 1009.8
20260506082608 6 7 9.7 16.1 0.03 5.11 0.91 90 1009.7
20260506081528 6 0 11.3 16.1 0.00 5.13 0.89 90 1009.7
20260506080528 6 5 9.7 14.5 0.00 5.13 0.89 93 1009.9
20260506073528 6 338 3.2 6.4 0.10 5.13 0.89 92 1009.4
20260506072528 6 1 9.7 16.1 0.13 5.13 0.89 90 1009.3
20260506071528 6 352 12.9 20.9 0.20 5.13 0.89 93 1009.2
20260506070528 7 14 16.1 27.4 0.20 5.13 0.89 95 1009.0
20260506061548 8 354 11.3 20.9 0.05 4.93 0.69 96 1009.4
20260506060528 8 354 9.7 14.5 0.10 4.93 0.69 97 1009.3
20260506050528 8 356 11.3 16.1 0.43 4.83 0.58 97 1008.6
20260506044528 8 3 9.7 16.1 0.58 4.78 0.53 98 1008.3
20260506043528 9 352 9.7 16.1 0.58 4.72 0.48 98 1008.3
20260506042548 9 19 8.0 14.5 0.58 4.65 0.41 98 1008.8
20260506041528 9 1 6.4 11.3 0.53 4.55 0.30 98 1008.7
20260506040529 9 9 6.4 9.7 0.53 4.39 0.15 98 1008.5
20260506035528 9 5 8.0 17.7 0.48 4.24 4.24 98 1008.0
20260506034528 9 1 9.7 16.1 0.48 4.19 4.19 98 1007.9
20260506033548 9 8 11.3 14.5 0.43 4.14 4.14 98 1007.9
20260506032548 9 357 8.0 14.5 0.38 4.06 4.06 98 1008.2
20260506031528 10 357 8.0 16.1 0.36 4.01 4.01 97 1008.2
20260506030529 10 353 8.0 14.5 0.25 3.86 3.86 97 1008.8
20260506025528 10 355 9.7 14.5 0.18 3.76 3.76 97 1008.0
20260506024549 10 2 8.0 14.5 0.15 3.71 3.71 97 1007.9
20260506023529 10 4 8.0 14.5 0.20 3.71 3.71 97 1007.7
20260506022528 10 6 12.9 17.7 0.28 3.68 3.68 97 1007.7
20260506021550 10 12 9.7 14.5 0.30 3.66 3.66 97 1007.9
20260506020518 10 359 9.7 16.1 0.41 3.61 3.61 97 1008.1
20260506015519 10 7 11.3 17.7 0.51 3.58 3.58 97 1007.9
20260506014519 10 6 8.0 12.9 0.58 3.56 3.56 97 1008.2
20260506013518 10 7 11.3 16.1 0.56 3.51 3.51 97 1008.0
20260506012519 10 320 1.6 8.0 0.51 3.40 3.40 97 1008.6
20260506011518 10 359 4.8 11.3 0.56 3.35 3.35 97 1008.4
20260506010519 10 9 8.0 14.5 0.51 3.20 3.20 97 1008.3
20260506005519 10 347 4.8 11.3 0.46 3.07 3.07 97 1008.2
20260506004519 10 5 9.7 19.3 0.58 2.97 2.97 97 1008.1
20260506003539 10 357 9.7 17.7 0.66 2.95 2.95 96 1008.0
20260506002519 10 3 9.7 16.1 0.64 2.90 2.90 95 1008.1
20260506001519 11 12 11.3 22.5 0.58 2.79 2.79 94 1008.4
20260506000519 12 344 6.4 17.7 0.61 2.69 2.69 95 1008.3
20260505235519 14 332 6.4 17.7 0.66 2.62 2.62 97 1008.1
20260505234519 15 242 8.0 14.5 0.46 2.39 2.39 97 1007.6
20260505233519 15 206 11.3 14.5 0.36 2.29 2.29 96 1007.2
20260505232519 15 196 11.3 17.7 0.36 2.26 2.26 96 1007.2
20260505231519 15 214 14.5 20.9 0.33 2.21 2.21 96 1007.7
20260505230519 15 196 14.5 22.5 0.25 2.08 2.08 95 1007.8
20260505225519 15 199 14.5 20.9 0.18 1.96 1.96 94 1007.8
20260505224559 15 200 16.1 20.9 0.23 1.93 1.93 94 1007.8
20260505223539 15 197 17.7 29.0 0.30 1.93 1.93 96 1008.0
20260505222539 15 198 12.9 17.7 0.38 1.91 1.91 97 1008.0
20260505221519 15 212 8.0 12.9 0.51 1.88 1.88 97 1008.1
20260505220539 15 194 9.7 16.1 0.53 1.83 1.83 97 1008.1
20260505215519 15 201 9.7 14.5 0.56 1.78 1.78 97 1008.1
20260505214540 15 204 8.0 11.3 0.48 1.70 1.70 97 1008.1
20260505213519 15 203 9.7 14.5 0.41 1.63 1.63 96 1008.2
20260505212519 15 205 9.7 16.1 0.30 1.52 1.52 96 1008.4
20260505211519 15 214 9.7 12.9 0.15 1.37 1.37 95 1008.5
20260505210519 15 212 9.7 14.5 0.08 1.30 1.30 95 1008.5
20260505205519 15 212 11.3 16.1 0.00 1.22 1.22 94 1008.5
20260505204519 16 194 12.9 22.5 0.00 1.22 1.22 94 1008.5